Stündliche Wetter Kytsivka

Heute, 16 Mai, Sonntag

Zeit Temperatur Niederschläge Wind Luftdruck Luftfeuchtigkeit
00:00 +16°C° 0 mm 1 m/S 750 mmHg 69%
01:00 +16°C° 0 mm 1 m/S 750 mmHg 69%
02:00 +15°C° 0 mm 1 m/S 750 mmHg 70%
03:00 +16°C° 0 mm 1 m/S 751 mmHg 71%
04:00 +16°C° 0 mm 1 m/S 751 mmHg 72%
05:00 +16°C° 0 mm 1 m/S 751 mmHg 73%
06:00 +19°C° 0 mm 1 m/S 751 mmHg 68%
07:00 +21°C° 0 mm 1 m/S 751 mmHg 63%
08:00 +23°C° 0 mm 2 m/S 751 mmHg 57%
09:00 +24°C° 0 mm 2 m/S 751 mmHg 54%
10:00 +25°C° 0 mm 2 m/S 751 mmHg 51%
11:00 +26°C° 0 mm 2 m/S 750 mmHg 48%
12:00 +26°C° 0 mm 3 m/S 750 mmHg 48%
13:00 +27°C° 0 mm 3 m/S 750 mmHg 48%
14:00 +27°C° 0 mm 3 m/S 750 mmHg 48%
15:00 +27°C° 0 mm 3 m/S 749 mmHg 53%
16:00 +26°C° 0 mm 4 m/S 749 mmHg 58%
17:00 +26°C° 0 mm 4 m/S 748 mmHg 63%
18:00 +23°C° 0.5 mm 4 m/S 748 mmHg 70%
19:00 +22°C° 0.5 mm 4 m/S 748 mmHg 78%
20:00 +20°C° 0.5 mm 4 m/S 747 mmHg 85%
21:00 +19°C° 0 mm 4 m/S 747 mmHg 84%
22:00 +18°C° 0 mm 4 m/S 747 mmHg 83%
23:00 +18°C° 0 mm 3 m/S 747 mmHg 82%

Morgen, 17 Mai, Montag

Zeit Temperatur Niederschläge Wind Luftdruck Luftfeuchtigkeit
00:00 +17°C° 0 mm 4 m/S 746 mmHg 77%
01:00 +17°C° 0 mm 4 m/S 746 mmHg 73%
02:00 +16°C° 0 mm 5 m/S 745 mmHg 69%
03:00 +17°C° 0 mm 4 m/S 746 mmHg 71%
04:00 +15°C° 0 mm 4 m/S 746 mmHg 72%
05:00 +15°C° 0 mm 4 m/S 746 mmHg 74%
06:00 +17°C° 0 mm 5 m/S 745 mmHg 68%
07:00 +20°C° 0 mm 6 m/S 745 mmHg 63%
08:00 +22°C° 0 mm 7 m/S 745 mmHg 58%
09:00 +23°C° 0 mm 7 m/S 745 mmHg 55%
10:00 +24°C° 0 mm 7 m/S 745 mmHg 52%
11:00 +26°C° 0 mm 8 m/S 745 mmHg 50%
12:00 +27°C° 0 mm 7 m/S 745 mmHg 51%
13:00 +27°C° 0 mm 7 m/S 745 mmHg 51%
14:00 +28°C° 0 mm 6 m/S 745 mmHg 52%
15:00 +27°C° 0 mm 6 m/S 745 mmHg 56%
16:00 +27°C° 0 mm 5 m/S 745 mmHg 60%
17:00 +26°C° 0 mm 5 m/S 744 mmHg 64%
18:00 +25°C° 0 mm 4 m/S 745 mmHg 69%
19:00 +22°C° 0 mm 4 m/S 745 mmHg 75%
20:00 +20°C° 0 mm 3 m/S 745 mmHg 80%
21:00 +20°C° 0 mm 3 m/S 745 mmHg 81%
22:00 +19°C° 0 mm 3 m/S 745 mmHg 83%
23:00 +19°C° 0 mm 3 m/S 745 mmHg 84%

übermorgen, 18 Mai, Dienstag

Zeit Temperatur Niederschläge Wind Luftdruck Luftfeuchtigkeit
00:00 +18°C° 0 mm 4 m/S 746 mmHg 85%
01:00 +17°C° 0 mm 4 m/S 746 mmHg 87%
02:00 +15°C° 0 mm 4 m/S 746 mmHg 89%
03:00 +15°C° 0 mm 4 m/S 746 mmHg 89%
04:00 +14°C° 0 mm 4 m/S 746 mmHg 89%
05:00 +14°C° 0 mm 4 m/S 746 mmHg 89%
06:00 +15°C° 0 mm 4 m/S 746 mmHg 84%
07:00 +18°C° 0 mm 4 m/S 746 mmHg 80%
08:00 +19°C° 0 mm 4 m/S 746 mmHg 76%
09:00 +19°C° 0.1 mm 4 m/S 746 mmHg 73%
10:00 +20°C° 0.1 mm 4 m/S 746 mmHg 71%
11:00 +21°C° 0.1 mm 4 m/S 746 mmHg 69%
12:00 +22°C° 0.4 mm 5 m/S 746 mmHg 65%
13:00 +23°C° 0.4 mm 5 m/S 746 mmHg 61%
14:00 +23°C° 0.4 mm 5 m/S 746 mmHg 57%
15:00 +22°C° 0.8 mm 4 m/S 745 mmHg 63%
16:00 +21°C° 0.8 mm 4 m/S 745 mmHg 68%
17:00 +20°C° 0.8 mm 4 m/S 745 mmHg 74%
18:00 +19°C° 0.1 mm 3 m/S 745 mmHg 79%
19:00 +18°C° 0.1 mm 3 m/S 745 mmHg 84%
20:00 +17°C° 0.1 mm 3 m/S 746 mmHg 89%
21:00 +16°C° 0 mm 3 m/S 745 mmHg 90%
22:00 +15°C° 0 mm 4 m/S 745 mmHg 91%
23:00 +15°C° 0 mm 4 m/S 745 mmHg 92%

19 Mai, Mittwoch

Zeit Temperatur Niederschläge Wind Luftdruck Luftfeuchtigkeit
00:00 +15°C° 0.1 mm 4 m/S 745 mmHg 93%
01:00 +14°C° 0.1 mm 3 m/S 745 mmHg 94%
02:00 +14°C° 0.1 mm 3 m/S 745 mmHg 95%
03:00 +14°C° 1.4 mm 3 m/S 745 mmHg 96%
04:00 +14°C° 1.4 mm 3 m/S 745 mmHg 96%
05:00 +13°C° 1.4 mm 3 m/S 744 mmHg 97%
06:00 +13°C° 1.5 mm 3 m/S 745 mmHg 96%
07:00 +13°C° 1.5 mm 3 m/S 745 mmHg 96%
08:00 +13°C° 1.5 mm 4 m/S 745 mmHg 95%
09:00 +14°C° 0.6 mm 4 m/S 745 mmHg 91%
10:00 +14°C° 0.6 mm 5 m/S 746 mmHg 86%
11:00 +14°C° 0.6 mm 5 m/S 746 mmHg 82%
12:00 +14°C° 0.2 mm 5 m/S 746 mmHg 81%
13:00 +14°C° 0.2 mm 6 m/S 747 mmHg 80%
14:00 +14°C° 0.2 mm 6 m/S 747 mmHg 79%
15:00 +14°C° 0 mm 6 m/S 747 mmHg 79%
16:00 +13°C° 0 mm 6 m/S 747 mmHg 80%
17:00 +13°C° 0 mm 6 m/S 747 mmHg 80%
18:00 +13°C° 0 mm 6 m/S 748 mmHg 79%
19:00 +13°C° 0 mm 6 m/S 748 mmHg 78%
20:00 +13°C° 0 mm 6 m/S 748 mmHg 77%
21:00 +11°C° 0 mm 7 m/S 748 mmHg 78%
22:00 +11°C° 0 mm 7 m/S 748 mmHg 79%
23:00 +10°C° 0 mm 7 m/S 749 mmHg 80%

20 Mai, Donnerstag

Zeit Temperatur Niederschläge Wind Luftdruck Luftfeuchtigkeit
00:00 +10°C° 0 mm 7 m/S 749 mmHg 81%
01:00 +9°C° 0 mm 6 m/S 749 mmHg 83%
02:00 +9°C° 0 mm 6 m/S 749 mmHg 85%
03:00 +9°C° 0 mm 5 m/S 750 mmHg 86%
04:00 +9°C° 0 mm 5 m/S 750 mmHg 86%
05:00 +10°C° 0 mm 4 m/S 750 mmHg 87%
06:00 +12°C° 0 mm 5 m/S 751 mmHg 80%
07:00 +13°C° 0 mm 5 m/S 751 mmHg 74%
08:00 +15°C° 0 mm 5 m/S 751 mmHg 68%
09:00 +17°C° 0 mm 4 m/S 751 mmHg 63%
10:00 +18°C° 0 mm 4 m/S 751 mmHg 59%
11:00 +20°C° 0 mm 4 m/S 751 mmHg 55%
12:00 +20°C° 0 mm 3 m/S 751 mmHg 52%
13:00 +21°C° 0 mm 3 m/S 751 mmHg 50%
14:00 +21°C° 0 mm 3 m/S 751 mmHg 47%
15:00 +21°C° 0 mm 2 m/S 751 mmHg 50%
16:00 +21°C° 0 mm 2 m/S 751 mmHg 54%
17:00 +22°C° 0 mm 1 m/S 751 mmHg 57%
18:00 +20°C° 0 mm 2 m/S 751 mmHg 61%
19:00 +18°C° 0 mm 2 m/S 751 mmHg 65%
20:00 +17°C° 0 mm 3 m/S 750 mmHg 68%
21:00 +16°C° 0.1 mm 3 m/S 750 mmHg 71%
22:00 +15°C° 0.1 mm 4 m/S 750 mmHg 73%
23:00 +15°C° 0.1 mm 4 m/S 749 mmHg 76%

21 Mai, Freitag

Zeit Temperatur Niederschläge Wind Luftdruck Luftfeuchtigkeit
00:00 +15°C° 0 mm 5 m/S 749 mmHg 75%
01:00 +15°C° 0 mm 6 m/S 748 mmHg 74%
02:00 +15°C° 0 mm 6 m/S 748 mmHg 74%
03:00 +15°C° 0 mm 6 m/S 747 mmHg 72%
04:00 +15°C° 0 mm 6 m/S 747 mmHg 71%
05:00 +15°C° 0 mm 6 m/S 746 mmHg 70%
06:00 +16°C° 0 mm 6 m/S 746 mmHg 70%
07:00 +19°C° 0 mm 6 m/S 746 mmHg 70%
08:00 +20°C° 0 mm 6 m/S 745 mmHg 70%
09:00 +21°C° 0 mm 6 m/S 745 mmHg 68%
10:00 +22°C° 0 mm 7 m/S 745 mmHg 67%
11:00 +23°C° 0 mm 7 m/S 745 mmHg 66%
12:00 +23°C° 0.1 mm 7 m/S 745 mmHg 63%
13:00 +23°C° 0.1 mm 7 m/S 745 mmHg 60%
14:00 +23°C° 0.1 mm 7 m/S 746 mmHg 57%
15:00 +22°C° 0 mm 7 m/S 746 mmHg 58%
16:00 +21°C° 0 mm 7 m/S 746 mmHg 59%
17:00 +21°C° 0 mm 7 m/S 746 mmHg 61%
18:00 +18°C° 0 mm 7 m/S 747 mmHg 63%
19:00 +17°C° 0 mm 6 m/S 747 mmHg 65%
20:00 +15°C° 0 mm 6 m/S 747 mmHg 67%
21:00 +14°C° 0 mm 6 m/S 748 mmHg 70%
22:00 +13°C° 0 mm 6 m/S 748 mmHg 73%
23:00 +11°C° 0 mm 6 m/S 749 mmHg 77%
Mehr zeigen

Wir brauchen deine Erlaubnis

Meteoprog und unser Service Anbieter werden persönliche Daten aufbewahren, so wie Cookies, Geräte Bezeichnung oder ähnliche Technologien von deinem Gerät und Prozess, so wie Persönliche Daten Inhalte und Werbungen, genauso wie social Media und den Verkehr zu analysieren.

  • Aufbewahrung und/oder Zugang zu deiner Geräte Informationen.

    Cookies, Geräte Bezeichnung oder andere Informationen, können aufbewahrt oder Zugang zu deinem Gerät erhalten, für den Grund, der oben angegeben wird.

  • Personalisierte Werbung und Inhalte, Messungen, Einblick in das Publikum und Produkt Entwicklung.

    Werbungen und Inhalte können personalisiert werden, basierend auf ein Profil. Mehr Daten können besser personalisierte Werbungen und Inhalte hinzufügen. Werbung und Inhalte können gezeigt und gemessen werden. Einblicke über das Publikum, welche die Werbung gesehen haben und den Inhalt, können abgeleitet werden. So wie Daten können genutzt werden, um es zu verbessern oder die Benutzer Erfahrung zu verbessern das System und die Software.

Wenn du “Ich stimme zu” klickst, erlaubst du uns, die Cookies zu benutzen die Geräte Bezeichnung, den Web oder ähnliche Technologien zu benutzen. Deine Settings, können in deinem Gerät bei deinem Browser geändert werden.

Für den bestimmten Zweck, berechtigten Interessen beruhen darauf, mehr als auf den Inhalt. Du kannst mehr darüber in unseren Privaten und Cookie Politik lesen.